Погода в Камышинке

Россия / Тюменская область     56°08′00″N   70°39′44″E
темп.,
°C
ветер,
м/с
пор.,
м/с
влажн.,
%
обл.,
%
осадки,
мм/ч
давл.,
гПа
погр.,
м
30 июня, чт
чт3023:00+9зсз91696100 4.8 995685
02:00+9зсз91595100 0.8 995676
05:00+8зсз81592100 0.8 996768
08:00+11зсз9157735 0.0 9971029
11:00+13сз91471100 0.0 9991424
14:00+14зсз9136498 0.1 10011749
17:00+16зсз8146614 0.1 10022034
20:00+12сз611745 0.0 1003430
1 июля, пт
пт123:00+12зсз71465100 0.0 1004876
02:00+9зсз71491100 0.8 1005652
05:00+9зсз61393100 1.6 1006519
08:00+9зсз61293100 0.1 1007495
11:00+12зсз7108292 0.1 1008657
14:00+14сз6877100 0.0 1009789
17:00+13зсз5882100 0.1 1010546
20:00+14з598599 0.0 1010377
2 июля, сб
сб223:00+12з488899 0.0 1010216
02:00+11з3684100 0.0 1010162
05:00+11з358816 0.0 1010123
08:00+14зсз3579100 0.0 1010406
11:00+15зсз237471 0.0 1010453
14:00+17сз346599 0.6 10101011
17:00+18зсз336552 0.8 10101017
20:00+14з34835 0.3 101053
3 июля, вс
вс323:00+12з338889 0.3 101044
02:00+11з228966 0.0 100936
05:00+11зюз238967 0.0 100871
08:00+16зюз23746 0.0 1008316
11:00+19зюз336784 0.8 1007637
14:00+19ю116245 1.4 1006772
17:00+20с115828 1.4 10051120
20:00+16вюв227553 0.6 100411
4 июля, пн
пн423:00+13вюв22858 0.6 100420
02:00+11вюв228821 0.0 100313
05:00+11св239170 0.0 100253
08:00+15св238473 0.2 1002334
11:00+18св3475100 3.7 1001828
14:00+18св567986 3.0 1001890
17:00+17ссв6888100 6.4 1002741
20:00+13ссв6992100 0.7 1004395